Time,TemperatureF,DewpointF,PressureIn,WindDirection,WindDirectionDegrees,WindSpeedMPH,WindSpeedGustMPH,Humidity,HourlyPrecipIn,Conditions,Clouds,dailyrainin,SoftwareType,DateUTC
2013-05-18 00:01:00,58.8,47.9,30.08,SSW,204,0.0,0.0,67,0.00,,,0.00,Wunderground v.1.15,2013-05-18 04:01:00,
2013-05-18 00:02:00,58.8,47.9,30.08,SSW,204,0.0,0.0,67,0.00,,,0.00,Wunderground v.1.15,2013-05-18 04:02:00,
2013-05-18 00:03:00,58.7,47.8,30.08,SSW,204,0.0,0.0,67,0.00,,,0.00,Wunderground v.1.15,2013-05-18 04:03:00,
2013-05-18 00:05:00,58.6,48.1,30.08,SSW,208,0.0,0.0,68,0.00,,,0.00,Wunderground v.1.15,2013-05-18 04:05:00,
2013-05-18 00:08:00,58.4,47.9,30.08,South,187,0.0,1.0,68,0.00,,,0.00,Wunderground v.1.15,2013-05-18 04:08:00,
2013-05-18 00:13:00,58.3,47.8,30.08,South,188,0.0,0.0,68,0.00,,,0.00,Wunderground v.1.15,2013-05-18 04:13:00,
2013-05-18 00:18:00,58.1,47.6,30.09,South,191,1.0,1.0,68,0.00,,,0.00,Wunderground v.1.15,2013-05-18 04:18:00,
2013-05-18 00:23:00,58.2,47.7,30.09,South,191,0.0,0.0,68,0.00,,,0.00,Wunderground v.1.15,2013-05-18 04:23:00,
2013-05-18 00:28:00,58.1,47.6,30.08,South,191,0.0,1.0,68,0.00,,,0.00,Wunderground v.1.15,2013-05-18 04:28:00,
2013-05-18 00:33:00,58.0,47.5,30.09,SW,215,0.0,0.0,68,0.00,,,0.00,Wunderground v.1.15,2013-05-18 04:33:00,
2013-05-18 00:38:00,57.7,47.2,30.09,SW,215,0.0,0.0,68,0.00,,,0.00,Wunderground v.1.15,2013-05-18 04:38:00,
2013-05-18 00:44:00,57.2,47.1,30.09,SW,215,0.0,0.0,69,0.00,,,0.00,Wunderground v.1.15,2013-05-18 04:44:00,
2013-05-18 00:49:00,56.7,47.0,30.09,SW,215,0.0,0.0,70,0.00,,,0.00,Wunderground v.1.15,2013-05-18 04:49:00,
2013-05-18 00:54:00,56.1,46.8,30.09,SW,215,0.0,0.0,71,0.00,,,0.00,Wunderground v.1.15,2013-05-18 04:54:00,
2013-05-18 00:59:00,55.6,47.4,30.09,SW,215,0.0,0.0,74,0.00,,,0.00,Wunderground v.1.15,2013-05-18 04:59:00,
2013-05-18 01:05:00,55.3,47.2,30.09,West,281,0.0,1.0,74,0.00,,,0.00,Wunderground v.1.15,2013-05-18 05:05:00,
2013-05-18 01:10:00,55.6,47.4,30.09,WSW,245,0.0,1.0,74,0.00,,,0.00,Wunderground v.1.15,2013-05-18 05:10:00,
2013-05-18 01:15:00,55.5,47.3,30.09,WSW,245,0.0,0.0,74,0.00,,,0.00,Wunderground v.1.15,2013-05-18 05:15:00,
2013-05-18 01:20:00,55.3,46.8,30.09,WSW,245,0.0,0.0,73,0.00,,,0.00,Wunderground v.1.15,2013-05-18 05:20:00,
2013-05-18 01:25:00,55.0,46.9,30.09,WSW,245,0.0,0.0,74,0.00,,,0.00,Wunderground v.1.15,2013-05-18 05:25:00,
2013-05-18 01:30:00,54.8,46.7,30.09,WSW,245,0.0,0.0,74,0.00,,,0.00,Wunderground v.1.15,2013-05-18 05:30:00,
2013-05-18 01:35:00,54.3,46.9,30.08,WSW,245,0.0,0.0,76,0.00,,,0.00,Wunderground v.1.15,2013-05-18 05:35:00,
2013-05-18 01:40:00,53.5,47.1,30.08,WSW,245,0.0,0.0,79,0.00,,,0.00,Wunderground v.1.15,2013-05-18 05:40:00,
2013-05-18 01:45:00,52.7,47.4,30.08,WSW,245,0.0,0.0,82,0.00,,,0.00,Wunderground v.1.15,2013-05-18 05:45:00,
2013-05-18 01:50:00,52.1,47.1,30.09,WSW,245,0.0,0.0,83,0.00,,,0.00,Wunderground v.1.15,2013-05-18 05:50:00,
2013-05-18 01:55:00,51.7,47.0,30.09,WSW,245,0.0,0.0,84,0.00,,,0.00,Wunderground v.1.15,2013-05-18 05:55:00,
2013-05-18 02:00:00,51.3,46.9,30.09,WSW,245,0.0,0.0,85,0.00,,,0.00,Wunderground v.1.15,2013-05-18 06:00:00,
2013-05-18 02:05:00,51.1,47.1,30.09,WSW,245,0.0,0.0,86,0.00,,,0.00,Wunderground v.1.15,2013-05-18 06:05:00,
2013-05-18 02:10:00,51.1,47.1,30.09,WSW,245,0.0,0.0,86,0.00,,,0.00,Wunderground v.1.15,2013-05-18 06:10:00,
2013-05-18 02:15:00,51.1,47.1,30.09,WSW,245,0.0,0.0,86,0.00,,,0.00,Wunderground v.1.15,2013-05-18 06:15:00,
2013-05-18 02:21:00,51.1,47.1,30.09,WSW,245,0.0,0.0,86,0.00,,,0.00,Wunderground v.1.15,2013-05-18 06:21:00,
2013-05-18 02:26:00,51.1,47.1,30.09,WSW,245,0.0,0.0,86,0.00,,,0.00,Wunderground v.1.15,2013-05-18 06:26:00,
2013-05-18 02:31:00,51.0,47.3,30.09,WSW,245,0.0,0.0,87,0.00,,,0.00,Wunderground v.1.15,2013-05-18 06:31:00,
2013-05-18 02:36:00,50.9,47.2,30.09,WSW,245,0.0,0.0,87,0.00,,,0.00,Wunderground v.1.15,2013-05-18 06:36:00,
2013-05-18 02:41:00,51.1,47.4,30.09,WSW,245,0.0,0.0,87,0.00,,,0.00,Wunderground v.1.15,2013-05-18 06:41:00,
2013-05-18 02:46:00,51.2,47.5,30.09,WSW,245,0.0,0.0,87,0.00,,,0.00,Wunderground v.1.15,2013-05-18 06:46:00,
2013-05-18 02:52:00,51.2,47.5,30.09,WSW,245,0.0,0.0,87,0.00,,,0.00,Wunderground v.1.15,2013-05-18 06:52:00,
2013-05-18 02:57:00,51.2,47.5,30.09,WSW,245,0.0,0.0,87,0.00,,,0.00,Wunderground v.1.15,2013-05-18 06:57:00,
2013-05-18 03:02:00,51.3,47.9,30.09,WSW,245,0.0,0.0,88,0.00,,,0.00,Wunderground v.1.15,2013-05-18 07:02:00,
2013-05-18 03:07:00,51.5,47.8,30.09,WSW,245,0.0,0.0,87,0.00,,,0.00,Wunderground v.1.15,2013-05-18 07:07:00,
2013-05-18 03:12:00,51.6,47.9,30.10,WSW,245,0.0,0.0,87,0.00,,,0.00,Wunderground v.1.15,2013-05-18 07:12:00,
2013-05-18 03:17:00,51.8,48.1,30.10,WSW,245,0.0,0.0,87,0.00,,,0.00,Wunderground v.1.15,2013-05-18 07:17:00,
2013-05-18 03:22:00,51.8,48.1,30.10,WSW,245,0.0,0.0,87,0.00,,,0.00,Wunderground v.1.15,2013-05-18 07:22:00,
2013-05-18 03:27:00,51.8,48.1,30.10,WSW,245,0.0,0.0,87,0.00,,,0.00,Wunderground v.1.15,2013-05-18 07:27:00,
2013-05-18 03:32:00,51.8,48.1,30.10,WSW,245,0.0,0.0,87,0.00,,,0.00,Wunderground v.1.15,2013-05-18 07:32:00,
2013-05-18 03:37:00,51.6,47.9,30.10,WSW,245,0.0,0.0,87,0.00,,,0.00,Wunderground v.1.15,2013-05-18 07:37:00,
2013-05-18 03:43:00,51.5,48.1,30.11,WSW,245,0.0,0.0,88,0.00,,,0.00,Wunderground v.1.15,2013-05-18 07:43:00,
2013-05-18 03:48:00,51.6,48.2,30.11,WSW,245,0.0,0.0,88,0.00,,,0.00,Wunderground v.1.15,2013-05-18 07:48:00,
2013-05-18 03:53:00,51.7,48.3,30.11,WSW,245,0.0,0.0,88,0.00,,,0.00,Wunderground v.1.15,2013-05-18 07:53:00,
2013-05-18 03:58:00,51.6,48.2,30.11,WSW,245,0.0,0.0,88,0.00,,,0.00,Wunderground v.1.15,2013-05-18 07:58:00,
2013-05-18 04:03:00,51.6,48.2,30.11,WSW,245,0.0,0.0,88,0.00,,,0.00,Wunderground v.1.15,2013-05-18 08:03:00,
2013-05-18 04:08:00,51.5,48.1,30.11,WSW,245,0.0,0.0,88,0.00,,,0.00,Wunderground v.1.15,2013-05-18 08:08:00,
2013-05-18 04:13:00,51.4,48.0,30.11,WSW,245,0.0,0.0,88,0.00,,,0.00,Wunderground v.1.15,2013-05-18 08:13:00,
2013-05-18 04:18:00,51.5,48.1,30.11,WSW,245,0.0,0.0,88,0.00,,,0.00,Wunderground v.1.15,2013-05-18 08:18:00,
2013-05-18 04:23:00,51.6,48.2,30.11,WSW,245,0.0,0.0,88,0.00,,,0.00,Wunderground v.1.15,2013-05-18 08:23:00,
2013-05-18 04:28:00,52.0,48.6,30.11,WSW,245,0.0,0.0,88,0.00,,,0.00,Wunderground v.1.15,2013-05-18 08:28:00,
2013-05-18 04:33:00,52.1,48.7,30.11,WSW,245,0.0,0.0,88,0.00,,,0.00,Wunderground v.1.15,2013-05-18 08:33:00,
2013-05-18 04:38:00,52.2,48.8,30.12,WSW,245,0.0,0.0,88,0.00,,,0.00,Wunderground v.1.15,2013-05-18 08:38:00,
2013-05-18 04:43:00,52.1,48.7,30.12,WSW,245,0.0,0.0,88,0.00,,,0.00,Wunderground v.1.15,2013-05-18 08:43:00,
2013-05-18 04:48:00,52.1,48.7,30.12,WSW,245,0.0,0.0,88,0.00,,,0.00,Wunderground v.1.15,2013-05-18 08:48:00,
2013-05-18 04:53:00,52.0,48.6,30.12,WSW,245,0.0,0.0,88,0.00,,,0.00,Wunderground v.1.15,2013-05-18 08:53:00,
2013-05-18 04:58:00,52.1,48.7,30.12,WSW,245,0.0,0.0,88,0.00,,,0.00,Wunderground v.1.15,2013-05-18 08:58:00,
2013-05-18 05:03:00,52.1,48.3,30.12,WSW,245,0.0,0.0,87,0.00,,,0.00,Wunderground v.1.15,2013-05-18 09:03:00,
2013-05-18 05:08:00,52.1,48.3,30.12,WSW,245,0.0,0.0,87,0.00,,,0.00,Wunderground v.1.15,2013-05-18 09:08:00,
2013-05-18 05:13:00,52.0,48.3,30.12,WSW,245,0.0,0.0,87,0.00,,,0.00,Wunderground v.1.15,2013-05-18 09:13:00,
2013-05-18 05:18:00,52.0,48.3,30.13,WSW,245,0.0,0.0,87,0.00,,,0.00,Wunderground v.1.15,2013-05-18 09:18:00,
2013-05-18 05:23:00,52.1,48.3,30.13,WSW,245,0.0,0.0,87,0.00,,,0.00,Wunderground v.1.15,2013-05-18 09:23:00,
2013-05-18 05:28:00,52.1,48.3,30.13,WSW,245,0.0,0.0,87,0.00,,,0.00,Wunderground v.1.15,2013-05-18 09:28:00,
2013-05-18 05:33:00,52.2,48.4,30.13,WSW,245,0.0,0.0,87,0.00,,,0.00,Wunderground v.1.15,2013-05-18 09:33:00,
2013-05-18 05:38:00,52.4,48.9,30.14,WSW,245,0.0,0.0,88,0.00,,,0.00,Wunderground v.1.15,2013-05-18 09:38:00,
2013-05-18 05:43:00,52.8,49.0,30.14,WSW,245,0.0,1.0,87,0.00,,,0.00,Wunderground v.1.15,2013-05-18 09:43:00,
2013-05-18 05:48:00,53.1,49.0,30.14,WSW,242,0.0,1.0,86,0.00,,,0.00,Wunderground v.1.15,2013-05-18 09:48:00,
2013-05-18 05:53:00,53.5,49.1,30.14,WSW,242,0.0,0.0,85,0.00,,,0.00,Wunderground v.1.15,2013-05-18 09:53:00,
2013-05-18 05:58:00,53.6,49.2,30.14,WSW,242,0.0,0.0,85,0.00,,,0.00,Wunderground v.1.15,2013-05-18 09:58:00,
2013-05-18 06:03:00,53.8,49.4,30.15,WSW,242,0.0,0.0,85,0.00,,,0.00,Wunderground v.1.15,2013-05-18 10:03:00,
2013-05-18 06:09:00,53.9,49.2,30.15,WSW,242,0.0,0.0,84,0.00,,,0.00,Wunderground v.1.15,2013-05-18 10:09:00,
2013-05-18 06:14:00,54.1,49.4,30.15,WSW,243,0.0,0.0,84,0.00,,,0.00,Wunderground v.1.15,2013-05-18 10:14:00,
2013-05-18 06:18:00,54.3,49.9,30.15,WSW,241,0.0,0.0,85,0.00,,,0.00,Wunderground v.1.15,2013-05-18 10:18:00,
2013-05-18 06:23:00,54.3,49.9,30.15,WSW,242,0.0,0.0,85,0.00,,,0.00,Wunderground v.1.15,2013-05-18 10:23:00,
2013-05-18 06:28:00,54.3,49.9,30.15,WSW,242,0.0,0.0,85,0.00,,,0.00,Wunderground v.1.15,2013-05-18 10:28:00,
2013-05-18 06:34:00,54.3,49.9,30.15,WSW,242,0.0,0.0,85,0.00,,,0.00,Wunderground v.1.15,2013-05-18 10:34:00,
2013-05-18 06:39:00,54.4,50.0,30.15,WSW,242,0.0,0.0,85,0.00,,,0.00,Wunderground v.1.15,2013-05-18 10:39:00,
2013-05-18 06:44:00,54.6,50.2,30.16,WSW,242,0.0,0.0,85,0.00,,,0.00,Wunderground v.1.15,2013-05-18 10:44:00,
2013-05-18 06:49:00,54.8,50.7,30.16,WSW,241,0.0,0.0,86,0.00,,,0.00,Wunderground v.1.15,2013-05-18 10:49:00,
2013-05-18 06:54:00,54.8,50.7,30.16,WSW,242,0.0,0.0,86,0.00,,,0.00,Wunderground v.1.15,2013-05-18 10:54:00,
2013-05-18 06:59:00,54.8,50.7,30.16,WSW,242,0.0,0.0,86,0.00,,,0.00,Wunderground v.1.15,2013-05-18 10:59:00,
2013-05-18 07:04:00,54.8,50.7,30.16,WSW,242,0.0,0.0,86,0.00,,,0.00,Wunderground v.1.15,2013-05-18 11:04:00,
2013-05-18 07:09:00,54.9,50.8,30.16,WSW,242,0.0,1.0,86,0.00,,,0.00,Wunderground v.1.15,2013-05-18 11:09:00,
2013-05-18 07:14:00,54.9,50.8,30.16,WSW,242,0.0,0.0,86,0.00,,,0.00,Wunderground v.1.15,2013-05-18 11:14:00,
2013-05-18 07:19:00,54.9,50.8,30.16,WSW,242,0.0,0.0,86,0.00,,,0.00,Wunderground v.1.15,2013-05-18 11:19:00,
2013-05-18 07:24:00,54.9,50.8,30.17,WSW,241,0.0,0.0,86,0.00,,,0.00,Wunderground v.1.15,2013-05-18 11:24:00,
2013-05-18 07:29:00,54.9,50.8,30.17,WSW,242,0.0,0.0,86,0.00,,,0.00,Wunderground v.1.15,2013-05-18 11:29:00,
2013-05-18 07:35:00,55.0,50.6,30.17,WSW,242,0.0,0.0,85,0.00,,,0.00,Wunderground v.1.15,2013-05-18 11:35:00,
2013-05-18 07:40:00,55.1,50.4,30.17,WSW,242,0.0,0.0,84,0.00,,,0.00,Wunderground v.1.15,2013-05-18 11:40:00,
2013-05-18 07:45:00,55.3,50.5,30.17,WSW,242,0.0,0.0,84,0.00,,,0.00,Wunderground v.1.15,2013-05-18 11:45:00,
2013-05-18 07:50:00,55.4,50.6,30.17,NE,53,0.0,1.0,84,0.00,,,0.00,Wunderground v.1.15,2013-05-18 11:50:00,
2013-05-18 07:55:00,55.6,50.8,30.17,NE,53,0.0,1.0,84,0.00,,,0.00,Wunderground v.1.15,2013-05-18 11:55:00,
2013-05-18 08:00:00,55.7,50.9,30.17,NE,53,0.0,1.0,84,0.00,,,0.00,Wunderground v.1.15,2013-05-18 12:00:00,
2013-05-18 08:05:00,56.0,51.2,30.17,NE,53,0.0,0.0,84,0.00,,,0.00,Wunderground v.1.15,2013-05-18 12:05:00,
2013-05-18 08:10:00,56.2,51.1,30.18,NE,53,0.0,1.0,83,0.00,,,0.00,Wunderground v.1.15,2013-05-18 12:10:00,
2013-05-18 08:15:00,56.3,50.9,30.18,NE,53,0.0,1.0,82,0.00,,,0.00,Wunderground v.1.15,2013-05-18 12:15:00,
2013-05-18 08:20:00,56.5,51.1,30.18,NE,53,0.0,1.0,82,0.00,,,0.00,Wunderground v.1.15,2013-05-18 12:20:00,
2013-05-18 08:25:00,56.7,51.6,30.18,NE,53,0.0,0.0,83,0.00,,,0.00,Wunderground v.1.15,2013-05-18 12:25:00,
2013-05-18 08:30:00,56.9,51.8,30.18,NE,53,0.0,0.0,83,0.00,,,0.00,Wunderground v.1.15,2013-05-18 12:30:00,
2013-05-18 08:35:00,57.0,51.9,30.18,NE,53,0.0,0.0,83,0.00,,,0.00,Wunderground v.1.15,2013-05-18 12:35:00,
2013-05-18 08:40:00,57.2,52.1,30.18,NE,53,0.0,0.0,83,0.00,,,0.00,Wunderground v.1.15,2013-05-18 12:40:00,
2013-05-18 08:45:00,57.5,52.4,30.18,NE,53,0.0,0.0,83,0.00,,,0.00,Wunderground v.1.15,2013-05-18 12:45:00,
2013-05-18 08:50:00,57.9,52.8,30.18,NE,53,0.0,0.0,83,0.00,,,0.00,Wunderground v.1.15,2013-05-18 12:50:00,
2013-05-18 08:56:00,58.3,52.8,30.18,NE,53,0.0,1.0,82,0.00,,,0.00,Wunderground v.1.15,2013-05-18 12:56:00,
2013-05-18 09:01:00,58.6,53.1,30.18,NE,53,0.0,1.0,82,0.00,,,0.00,Wunderground v.1.15,2013-05-18 13:01:00,
2013-05-18 09:06:00,59.0,53.5,30.19,NE,53,0.0,0.0,82,0.00,,,0.00,Wunderground v.1.15,2013-05-18 13:06:00,
2013-05-18 09:11:00,59.3,53.8,30.18,NE,53,0.0,0.0,82,0.00,,,0.00,Wunderground v.1.15,2013-05-18 13:11:00,
2013-05-18 09:16:00,59.8,54.0,30.19,NE,53,0.0,0.0,81,0.00,,,0.00,Wunderground v.1.15,2013-05-18 13:16:00,
2013-05-18 09:21:00,60.1,53.6,30.19,NE,53,0.0,1.0,79,0.00,,,0.00,Wunderground v.1.15,2013-05-18 13:21:00,
2013-05-18 09:26:00,60.2,53.0,30.19,NE,53,0.0,1.0,77,0.00,,,0.00,Wunderground v.1.15,2013-05-18 13:26:00,
2013-05-18 09:31:00,60.3,52.7,30.19,ENE,57,1.0,1.0,76,0.00,,,0.00,Wunderground v.1.15,2013-05-18 13:31:00,
2013-05-18 09:36:00,60.4,52.8,30.19,East,89,2.0,2.0,76,0.00,,,0.00,Wunderground v.1.15,2013-05-18 13:36:00,
2013-05-18 09:41:00,60.5,52.5,30.19,East,95,2.0,2.0,75,0.00,,,0.00,Wunderground v.1.15,2013-05-18 13:41:00,
2013-05-18 09:46:00,60.6,52.6,30.19,ESE,112,0.0,2.0,75,0.00,,,0.00,Wunderground v.1.15,2013-05-18 13:46:00,
2013-05-18 09:51:00,60.7,52.4,30.19,East,101,1.0,3.0,74,0.00,,,0.00,Wunderground v.1.15,2013-05-18 13:51:00,
2013-05-18 09:57:00,60.6,52.3,30.19,East,101,0.0,3.0,74,0.00,,,0.00,Wunderground v.1.15,2013-05-18 13:57:00,
2013-05-18 10:02:00,60.6,51.9,30.19,East,95,1.0,1.0,73,0.00,,,0.00,Wunderground v.1.15,2013-05-18 14:02:00,
2013-05-18 10:07:00,60.7,51.6,30.19,ESE,109,0.0,1.0,72,0.00,,,0.00,Wunderground v.1.15,2013-05-18 14:07:00,
2013-05-18 10:12:00,60.8,51.7,30.20,ESE,108,0.0,1.0,72,0.00,,,0.00,Wunderground v.1.15,2013-05-18 14:12:00,
2013-05-18 10:17:00,60.8,51.7,30.20,ESE,108,0.0,1.0,72,0.00,,,0.00,Wunderground v.1.15,2013-05-18 14:17:00,
2013-05-18 10:22:00,60.8,51.3,30.20,South,180,0.0,2.0,71,0.00,,,0.00,Wunderground v.1.15,2013-05-18 14:22:00,
2013-05-18 10:27:00,60.9,52.2,30.20,SSW,194,0.0,2.0,73,0.00,,,0.00,Wunderground v.1.15,2013-05-18 14:27:00,
2013-05-18 10:32:00,60.7,50.9,30.20,SSW,211,1.0,3.0,70,0.00,,,0.00,Wunderground v.1.15,2013-05-18 14:32:00,
2013-05-18 10:37:00,60.7,50.9,30.20,SSW,210,1.0,3.0,70,0.00,,,0.00,Wunderground v.1.15,2013-05-18 14:37:00,
2013-05-18 10:42:00,60.7,50.9,30.20,SW,221,2.0,3.0,70,0.00,,,0.00,Wunderground v.1.15,2013-05-18 14:42:00,
2013-05-18 10:47:00,60.7,50.9,30.20,SSW,203,2.0,3.0,70,0.00,,,0.00,Wunderground v.1.15,2013-05-18 14:47:00,
2013-05-18 10:52:00,60.8,51.3,30.20,SSW,211,1.0,1.0,71,0.00,,,0.00,Wunderground v.1.15,2013-05-18 14:52:00,
2013-05-18 10:57:00,61.0,51.9,30.19,SE,135,0.0,2.0,72,0.00,,,0.00,Wunderground v.1.15,2013-05-18 14:57:00,
2013-05-18 11:02:00,61.1,52.0,30.19,East,87,0.0,1.0,72,0.00,,,0.00,Wunderground v.1.15,2013-05-18 15:02:00,
2013-05-18 11:07:00,61.1,51.2,30.20,ESE,105,0.0,4.0,70,0.00,,,0.00,Wunderground v.1.15,2013-05-18 15:07:00,
2013-05-18 11:12:00,60.9,50.7,30.20,East,97,1.0,3.0,69,0.00,,,0.00,Wunderground v.1.15,2013-05-18 15:12:00,
2013-05-18 11:17:00,60.9,51.0,30.20,ESE,105,0.0,5.0,70,0.00,,,0.00,Wunderground v.1.15,2013-05-18 15:17:00,
2013-05-18 11:23:00,61.0,51.1,30.19,SSE,164,1.0,3.0,70,0.00,,,0.00,Wunderground v.1.15,2013-05-18 15:23:00,
2013-05-18 11:28:00,61.2,52.1,30.19,SSW,198,1.0,3.0,72,0.00,,,0.00,Wunderground v.1.15,2013-05-18 15:28:00,
2013-05-18 11:33:00,61.5,52.4,30.19,South,169,2.0,4.0,72,0.00,,,0.00,Wunderground v.1.15,2013-05-18 15:33:00,
2013-05-18 11:38:00,61.7,52.6,30.19,SE,143,1.0,4.0,72,0.00,,,0.00,Wunderground v.1.15,2013-05-18 15:38:00,
2013-05-18 11:43:00,61.9,52.8,30.19,ESE,110,1.0,2.0,72,0.00,,,0.00,Wunderground v.1.15,2013-05-18 15:43:00,
2013-05-18 11:48:00,61.8,52.7,30.19,East,96,1.0,4.0,72,0.00,,,0.00,Wunderground v.1.15,2013-05-18 15:48:00,
2013-05-18 11:53:00,61.6,52.5,30.19,East,99,1.0,2.0,72,0.00,,,0.00,Wunderground v.1.15,2013-05-18 15:53:00,
2013-05-18 11:58:00,61.7,52.6,30.19,SSW,198,4.0,5.0,72,0.00,,,0.00,Wunderground v.1.15,2013-05-18 15:58:00,
2013-05-18 12:03:00,61.9,53.1,30.19,SSW,193,1.0,2.0,73,0.00,,,0.00,Wunderground v.1.15,2013-05-18 16:03:00,
2013-05-18 12:08:00,62.2,53.1,30.18,ESE,113,2.0,4.0,72,0.00,,,0.00,Wunderground v.1.15,2013-05-18 16:08:00,
2013-05-18 12:13:00,62.0,53.2,30.18,ESE,108,2.0,4.0,73,0.00,,,0.00,Wunderground v.1.15,2013-05-18 16:13:00,
2013-05-18 12:18:00,61.9,53.1,30.18,East,100,0.0,4.0,73,0.00,,,0.00,Wunderground v.1.15,2013-05-18 16:18:00,
2013-05-18 12:23:00,62.2,53.8,30.19,East,101,0.0,3.0,74,0.00,,,0.00,Wunderground v.1.15,2013-05-18 16:23:00,
2013-05-18 12:28:00,62.5,53.7,30.18,SW,217,1.0,4.0,73,0.00,,,0.00,Wunderground v.1.15,2013-05-18 16:28:00,
2013-05-18 12:33:00,62.6,53.8,30.18,ESE,105,3.0,4.0,73,0.00,,,0.00,Wunderground v.1.15,2013-05-18 16:33:00,
2013-05-18 12:38:00,62.5,53.7,30.18,SE,134,1.0,5.0,73,0.00,,,0.00,Wunderground v.1.15,2013-05-18 16:38:00,
2013-05-18 12:43:00,62.5,54.1,30.18,ENE,64,1.0,3.0,74,0.00,,,0.00,Wunderground v.1.15,2013-05-18 16:43:00,
2013-05-18 12:48:00,62.6,54.2,30.18,SW,221,3.0,7.0,74,0.00,,,0.00,Wunderground v.1.15,2013-05-18 16:48:00,
2013-05-18 12:53:00,62.5,54.1,30.18,SSE,162,1.0,2.0,74,0.00,,,0.00,Wunderground v.1.15,2013-05-18 16:53:00,
2013-05-18 12:58:00,62.6,54.6,30.18,SE,146,0.0,4.0,75,0.00,,,0.00,Wunderground v.1.15,2013-05-18 16:58:00,
2013-05-18 13:03:00,62.6,53.8,30.18,SE,124,1.0,3.0,73,0.00,,,0.00,Wunderground v.1.15,2013-05-18 17:03:00,
2013-05-18 13:08:00,62.6,54.2,30.18,ESE,115,1.0,3.0,74,0.00,,,0.00,Wunderground v.1.15,2013-05-18 17:08:00,
2013-05-18 13:13:00,62.4,54.0,30.18,ESE,114,1.0,3.0,74,0.00,,,0.00,Wunderground v.1.15,2013-05-18 17:13:00,
2013-05-18 13:18:00,62.4,54.4,30.18,East,82,0.0,3.0,75,0.00,,,0.00,Wunderground v.1.15,2013-05-18 17:18:00,
2013-05-18 13:23:00,62.3,54.3,30.18,ESE,117,3.0,3.0,75,0.00,,,0.00,Wunderground v.1.15,2013-05-18 17:23:00,
2013-05-18 13:28:00,62.5,54.5,30.18,SSE,158,1.0,3.0,75,0.00,,,0.00,Wunderground v.1.15,2013-05-18 17:28:00,
2013-05-18 13:33:00,62.8,54.8,30.18,East,90,0.0,2.0,75,0.00,,,0.00,Wunderground v.1.15,2013-05-18 17:33:00,
2013-05-18 13:38:00,63.2,54.8,30.17,East,86,2.0,2.0,74,0.00,,,0.00,Wunderground v.1.15,2013-05-18 17:38:00,
2013-05-18 13:43:00,63.0,54.6,30.17,East,81,0.0,5.0,74,0.00,,,0.00,Wunderground v.1.15,2013-05-18 17:43:00,
2013-05-18 13:49:00,63.1,54.7,30.17,East,96,2.0,5.0,74,0.00,,,0.00,Wunderground v.1.15,2013-05-18 17:49:00,
2013-05-18 13:54:00,63.2,54.8,30.18,SSE,164,0.0,2.0,74,0.00,,,0.00,Wunderground v.1.15,2013-05-18 17:54:00,
2013-05-18 13:59:00,63.6,54.4,30.18,ESE,105,0.0,4.0,72,0.00,,,0.00,Wunderground v.1.15,2013-05-18 17:59:00,
2013-05-18 14:04:00,63.7,54.5,30.18,East,86,2.0,4.0,72,0.00,,,0.00,Wunderground v.1.15,2013-05-18 18:04:00,
2013-05-18 14:09:00,63.7,54.9,30.17,ESE,105,3.0,5.0,73,0.00,,,0.00,Wunderground v.1.15,2013-05-18 18:09:00,
2013-05-18 14:14:00,63.5,54.7,30.17,ESE,107,3.0,3.0,73,0.00,,,0.00,Wunderground v.1.15,2013-05-18 18:14:00,
2013-05-18 14:19:00,63.4,54.6,30.17,ENE,68,2.0,4.0,73,0.00,,,0.00,Wunderground v.1.15,2013-05-18 18:19:00,
2013-05-18 14:24:00,63.4,55.0,30.17,East,93,4.0,6.0,74,0.00,,,0.00,Wunderground v.1.15,2013-05-18 18:24:00,
2013-05-18 14:29:00,63.2,54.8,30.18,East,95,2.0,6.0,74,0.00,,,0.00,Wunderground v.1.15,2013-05-18 18:29:00,
2013-05-18 14:34:00,63.1,54.7,30.18,SE,132,1.0,4.0,74,0.00,,,0.00,Wunderground v.1.15,2013-05-18 18:34:00,
2013-05-18 14:40:00,62.9,54.9,30.18,South,191,3.0,4.0,75,0.00,,,0.00,Wunderground v.1.15,2013-05-18 18:40:00,
2013-05-18 14:45:00,63.0,54.9,30.17,South,187,1.0,1.0,75,0.00,,,0.00,Wunderground v.1.15,2013-05-18 18:45:00,
2013-05-18 14:50:00,62.9,54.9,30.17,ESE,105,1.0,3.0,75,0.00,,,0.00,Wunderground v.1.15,2013-05-18 18:50:00,
2013-05-18 14:55:00,62.9,55.2,30.17,ESE,107,0.0,2.0,76,0.00,,,0.00,Wunderground v.1.15,2013-05-18 18:55:00,
2013-05-18 15:00:00,62.7,55.4,30.18,ESE,108,0.0,5.0,77,0.00,,,0.00,Wunderground v.1.15,2013-05-18 19:00:00,
2013-05-18 15:05:00,62.8,56.2,30.18,East,84,2.0,2.0,79,0.00,,,0.00,Wunderground v.1.15,2013-05-18 19:05:00,
2013-05-18 15:10:00,62.4,55.4,30.18,ESE,105,1.0,2.0,78,0.00,,,0.00,Wunderground v.1.15,2013-05-18 19:10:00,
2013-05-18 15:16:00,62.2,55.6,30.18,South,176,0.0,2.0,79,0.00,,,0.00,Wunderground v.1.15,2013-05-18 19:16:00,
2013-05-18 15:21:00,62.1,55.5,30.18,ESE,108,0.0,2.0,79,0.00,,,0.00,Wunderground v.1.15,2013-05-18 19:21:00,
2013-05-18 15:26:00,62.2,56.3,30.18,East,101,1.0,1.0,81,0.00,,,0.00,Wunderground v.1.15,2013-05-18 19:26:00,
2013-05-18 15:31:00,61.9,56.3,30.18,South,170,1.0,1.0,82,0.00,,,0.00,Wunderground v.1.15,2013-05-18 19:31:00,
2013-05-18 15:36:00,61.6,56.0,30.18,East,84,0.0,3.0,82,0.00,,,0.00,Wunderground v.1.15,2013-05-18 19:36:00,
2013-05-18 15:41:00,61.3,56.4,30.18,ESE,110,0.0,1.0,84,0.00,,,0.00,Wunderground v.1.15,2013-05-18 19:41:00,
2013-05-18 15:46:00,61.1,56.6,30.18,East,94,1.0,1.0,85,0.00,,,0.00,Wunderground v.1.15,2013-05-18 19:46:00,
2013-05-18 15:51:00,61.0,56.8,30.18,East,96,0.0,1.0,86,0.00,,,0.00,Wunderground v.1.15,2013-05-18 19:51:00,
2013-05-18 15:56:00,60.8,56.6,30.18,ESE,110,0.0,2.0,86,0.00,,,0.00,Wunderground v.1.15,2013-05-18 19:56:00,
2013-05-18 16:02:00,60.5,56.3,30.18,East,84,1.0,2.0,86,0.00,,,0.00,Wunderground v.1.15,2013-05-18 20:02:00,
2013-05-18 16:07:00,60.4,56.5,30.18,East,96,1.0,2.0,87,0.00,,,0.00,Wunderground v.1.15,2013-05-18 20:07:00,
2013-05-18 16:12:00,60.4,56.8,30.18,East,96,0.0,1.0,88,0.00,,,0.00,Wunderground v.1.15,2013-05-18 20:12:00,
2013-05-18 16:17:00,60.3,56.7,30.18,ESE,113,1.0,3.0,88,0.00,,,0.00,Wunderground v.1.15,2013-05-18 20:17:00,
2013-05-18 16:22:00,60.3,56.7,30.18,East,95,0.0,2.0,88,0.00,,,0.00,Wunderground v.1.15,2013-05-18 20:22:00,
2013-05-18 16:27:00,60.3,56.7,30.18,East,91,2.0,2.0,88,0.00,,,0.00,Wunderground v.1.15,2013-05-18 20:27:00,
2013-05-18 16:32:00,60.3,56.7,30.18,ESE,103,0.0,0.0,88,0.00,,,0.00,Wunderground v.1.15,2013-05-18 20:32:00,
2013-05-18 16:37:00,60.4,57.1,30.18,ESE,103,1.0,1.0,89,0.00,,,0.00,Wunderground v.1.15,2013-05-18 20:37:00,
2013-05-18 16:42:00,60.4,56.8,30.18,East,89,1.0,2.0,88,0.00,,,0.00,Wunderground v.1.15,2013-05-18 20:42:00,
2013-05-18 16:47:00,60.4,56.8,30.19,ESE,105,3.0,3.0,88,0.00,,,0.00,Wunderground v.1.15,2013-05-18 20:47:00,
2013-05-18 16:52:00,60.4,56.8,30.18,ENE,76,0.0,1.0,88,0.00,,,0.00,Wunderground v.1.15,2013-05-18 20:52:00,
2013-05-18 16:57:00,60.4,56.5,30.18,ESE,116,1.0,2.0,87,0.00,,,0.00,Wunderground v.1.15,2013-05-18 20:57:00,
2013-05-18 17:02:00,60.5,56.3,30.18,SSW,197,0.0,1.0,86,0.00,,,0.00,Wunderground v.1.15,2013-05-18 21:02:00,
2013-05-18 17:07:00,60.5,55.6,30.18,ESE,113,2.0,4.0,84,0.00,,,0.00,Wunderground v.1.15,2013-05-18 21:07:00,
2013-05-18 17:12:00,60.5,55.6,30.18,SSW,207,1.0,1.0,84,0.00,,,0.00,Wunderground v.1.15,2013-05-18 21:12:00,
2013-05-18 17:17:00,60.5,55.3,30.18,SSE,165,1.0,4.0,83,0.00,,,0.00,Wunderground v.1.15,2013-05-18 21:17:00,
2013-05-18 17:22:00,60.5,55.0,30.18,SSW,203,5.0,5.0,82,0.00,,,0.00,Wunderground v.1.15,2013-05-18 21:22:00,
2013-05-18 17:27:00,60.4,54.9,30.18,SW,222,2.0,5.0,82,0.00,,,0.00,Wunderground v.1.15,2013-05-18 21:27:00,
2013-05-18 17:32:00,60.4,55.2,30.18,SSW,198,1.0,3.0,83,0.00,,,0.00,Wunderground v.1.15,2013-05-18 21:32:00,
2013-05-18 17:37:00,60.5,55.3,30.18,South,173,3.0,6.0,83,0.00,,,0.00,Wunderground v.1.15,2013-05-18 21:37:00,
2013-05-18 17:43:00,60.5,55.6,30.17,SE,131,0.0,2.0,84,0.00,,,0.00,Wunderground v.1.15,2013-05-18 21:43:00,
2013-05-18 17:48:00,60.5,56.0,30.17,East,86,4.0,4.0,85,0.00,,,0.00,Wunderground v.1.15,2013-05-18 21:48:00,
2013-05-18 17:53:00,60.5,56.0,30.17,SSE,163,1.0,5.0,85,0.00,,,0.00,Wunderground v.1.15,2013-05-18 21:53:00,
2013-05-18 17:58:00,60.6,55.7,30.17,SSW,212,2.0,6.0,84,0.00,,,0.00,Wunderground v.1.15,2013-05-18 21:58:00,
2013-05-18 18:03:00,60.5,55.3,30.17,South,184,2.0,6.0,83,0.00,,,0.00,Wunderground v.1.15,2013-05-18 22:03:00,
2013-05-18 18:08:00,60.5,55.6,30.17,SW,217,2.0,6.0,84,0.00,,,0.00,Wunderground v.1.15,2013-05-18 22:08:00,
2013-05-18 18:13:00,60.4,55.5,30.17,South,176,0.0,2.0,84,0.00,,,0.00,Wunderground v.1.15,2013-05-18 22:13:00,
2013-05-18 18:18:00,60.3,55.4,30.17,South,184,3.0,6.0,84,0.00,,,0.00,Wunderground v.1.15,2013-05-18 22:18:00,
2013-05-18 18:23:00,60.1,55.2,30.17,SSW,203,2.0,6.0,84,0.00,,,0.00,Wunderground v.1.15,2013-05-18 22:23:00,
2013-05-18 18:28:00,60.0,55.5,30.17,SSW,205,1.0,6.0,85,0.00,,,0.00,Wunderground v.1.15,2013-05-18 22:28:00,
2013-05-18 18:33:00,59.9,55.4,30.17,SSE,165,1.0,3.0,85,0.00,,,0.00,Wunderground v.1.15,2013-05-18 22:33:00,
2013-05-18 18:38:00,59.8,55.3,30.17,South,184,1.0,4.0,85,0.00,,,0.00,Wunderground v.1.15,2013-05-18 22:38:00,
2013-05-18 18:43:00,59.7,55.5,30.17,South,172,2.0,2.0,86,0.00,,,0.00,Wunderground v.1.15,2013-05-18 22:43:00,
2013-05-18 18:49:00,59.6,55.4,30.18,ESE,105,0.0,3.0,86,0.00,,,0.00,Wunderground v.1.15,2013-05-18 22:49:00,
2013-05-18 18:54:00,59.5,55.3,30.18,SE,127,0.0,2.0,86,0.00,,,0.00,Wunderground v.1.15,2013-05-18 22:54:00,
2013-05-18 18:59:00,59.5,55.6,30.17,South,169,2.0,4.0,87,0.00,,,0.00,Wunderground v.1.15,2013-05-18 22:59:00,
2013-05-18 19:04:00,59.4,55.5,30.18,SSW,204,0.0,3.0,87,0.00,,,0.00,Wunderground v.1.15,2013-05-18 23:04:00,
2013-05-18 19:09:00,59.4,55.5,30.18,ESE,103,0.0,4.0,87,0.00,,,0.00,Wunderground v.1.15,2013-05-18 23:09:00,
2013-05-18 19:14:00,59.4,55.5,30.18,SSW,211,1.0,3.0,87,0.00,,,0.00,Wunderground v.1.15,2013-05-18 23:14:00,
2013-05-18 19:19:00,59.4,55.5,30.18,SW,236,3.0,4.0,87,0.00,,,0.00,Wunderground v.1.15,2013-05-18 23:19:00,
2013-05-18 19:24:00,59.4,55.5,30.17,East,86,0.0,4.0,87,0.00,,,0.00,Wunderground v.1.15,2013-05-18 23:24:00,
2013-05-18 19:29:00,59.5,55.6,30.17,SSW,211,1.0,7.0,87,0.00,,,0.00,Wunderground v.1.15,2013-05-18 23:29:00,
2013-05-18 19:34:00,59.5,55.6,30.18,SSW,200,2.0,2.0,87,0.00,,,0.00,Wunderground v.1.15,2013-05-18 23:34:00,
2013-05-18 19:39:00,59.5,55.6,30.18,SSW,210,3.0,4.0,87,0.00,,,0.00,Wunderground v.1.15,2013-05-18 23:39:00,
2013-05-18 19:44:00,59.5,55.3,30.18,SW,214,1.0,4.0,86,0.00,,,0.00,Wunderground v.1.15,2013-05-18 23:44:00,
2013-05-18 19:50:00,59.5,55.3,30.19,SSW,210,0.0,4.0,86,0.00,,,0.00,Wunderground v.1.15,2013-05-18 23:50:00,
2013-05-18 19:55:00,59.4,55.2,30.19,ESE,102,0.0,3.0,86,0.00,,,0.00,Wunderground v.1.15,2013-05-18 23:55:00,
2013-05-18 20:00:00,59.4,55.2,30.19,ESE,103,1.0,3.0,86,0.00,,,0.00,Wunderground v.1.15,2013-05-19 00:00:00,
2013-05-18 20:05:00,59.3,55.1,30.18,NE,56,1.0,2.0,86,0.00,,,0.00,Wunderground v.1.15,2013-05-19 00:05:00,
2013-05-18 20:10:00,59.2,54.7,30.19,ENE,78,1.0,4.0,85,0.00,,,0.00,Wunderground v.1.15,2013-05-19 00:10:00,
2013-05-18 20:15:00,59.3,54.8,30.19,SW,232,0.0,4.0,85,0.00,,,0.00,Wunderground v.1.15,2013-05-19 00:15:00,
2013-05-18 20:20:00,59.2,54.7,30.19,SSW,212,1.0,4.0,85,0.00,,,0.00,Wunderground v.1.15,2013-05-19 00:20:00,
2013-05-18 20:25:00,59.2,54.4,30.19,NE,47,1.0,5.0,84,0.00,,,0.00,Wunderground v.1.15,2013-05-19 00:25:00,
2013-05-18 20:31:00,59.1,54.3,30.18,South,170,1.0,1.0,84,0.00,,,0.00,Wunderground v.1.15,2013-05-19 00:31:00,
2013-05-18 20:36:00,59.1,54.3,30.18,SW,225,3.0,4.0,84,0.00,,,0.00,Wunderground v.1.15,2013-05-19 00:36:00,
2013-05-18 20:42:00,59.1,54.3,30.18,WSW,240,1.0,2.0,84,0.00,,,0.00,Wunderground v.1.15,2013-05-19 00:42:00,
2013-05-18 20:47:00,59.0,54.2,30.18,South,179,3.0,5.0,84,0.00,,,0.00,Wunderground v.1.15,2013-05-19 00:47:00,
2013-05-18 20:52:00,58.9,54.1,30.18,SSE,155,2.0,2.0,84,0.00,,,0.00,Wunderground v.1.15,2013-05-19 00:52:00,
2013-05-18 20:57:00,58.8,54.0,30.18,SSE,165,1.0,2.0,84,0.00,,,0.00,Wunderground v.1.15,2013-05-19 00:57:00,
2013-05-18 21:02:00,58.7,53.9,30.18,SSW,198,1.0,5.0,84,0.00,,,0.00,Wunderground v.1.15,2013-05-19 01:02:00,
2013-05-18 21:07:00,58.6,54.1,30.18,SSW,195,1.0,5.0,85,0.00,,,0.00,Wunderground v.1.15,2013-05-19 01:07:00,
2013-05-18 21:12:00,58.5,54.0,30.19,ENE,65,0.0,1.0,85,0.00,,,0.00,Wunderground v.1.15,2013-05-19 01:12:00,
2013-05-18 21:17:00,58.4,53.9,30.19,South,176,0.0,3.0,85,0.00,,,0.00,Wunderground v.1.15,2013-05-19 01:17:00,
2013-05-18 21:22:00,58.4,54.2,30.19,SSW,207,1.0,2.0,86,0.00,,,0.00,Wunderground v.1.15,2013-05-19 01:22:00,
2013-05-18 21:27:00,58.4,54.2,30.19,East,86,1.0,4.0,86,0.00,,,0.00,Wunderground v.1.15,2013-05-19 01:27:00,
2013-05-18 21:33:00,58.3,54.1,30.19,SSE,153,0.0,1.0,86,0.00,,,0.00,Wunderground v.1.15,2013-05-19 01:33:00,
2013-05-18 21:38:00,58.3,54.1,30.19,SE,145,2.0,2.0,86,0.00,,,0.00,Wunderground v.1.15,2013-05-19 01:38:00,
2013-05-18 21:43:00,58.2,54.3,30.19,ENE,74,0.0,1.0,87,0.00,,,0.00,Wunderground v.1.15,2013-05-19 01:43:00,
2013-05-18 21:48:00,58.1,54.2,30.19,East,92,1.0,2.0,87,0.00,,,0.00,Wunderground v.1.15,2013-05-19 01:48:00,
2013-05-18 21:53:00,58.1,54.2,30.19,East,89,1.0,1.0,87,0.00,,,0.00,Wunderground v.1.15,2013-05-19 01:53:00,
2013-05-18 21:58:00,58.1,54.2,30.19,SSW,194,0.0,1.0,87,0.00,,,0.00,Wunderground v.1.15,2013-05-19 01:58:00,
2013-05-18 22:03:00,58.2,54.3,30.19,SSW,198,1.0,3.0,87,0.00,,,0.00,Wunderground v.1.15,2013-05-19 02:03:00,
2013-05-18 22:08:00,58.1,54.6,30.19,SSW,210,1.0,3.0,88,0.00,,,0.00,Wunderground v.1.15,2013-05-19 02:08:00,
2013-05-18 22:13:00,58.1,54.6,30.19,East,88,0.0,1.0,88,0.00,,,0.00,Wunderground v.1.15,2013-05-19 02:13:00,
2013-05-18 22:18:00,58.1,54.6,30.19,SSW,194,2.0,3.0,88,0.00,,,0.00,Wunderground v.1.15,2013-05-19 02:18:00,
2013-05-18 22:23:00,58.0,54.5,30.19,SW,215,0.0,1.0,88,0.00,,,0.00,Wunderground v.1.15,2013-05-19 02:23:00,
2013-05-18 22:29:00,58.0,54.5,30.19,South,172,0.0,2.0,88,0.00,,,0.00,Wunderground v.1.15,2013-05-19 02:29:00,
2013-05-18 22:34:00,58.0,54.5,30.19,ESE,110,1.0,1.0,88,0.00,,,0.00,Wunderground v.1.15,2013-05-19 02:34:00,
2013-05-18 22:39:00,58.0,54.5,30.18,ESE,110,0.0,1.0,88,0.00,,,0.00,Wunderground v.1.15,2013-05-19 02:39:00,
2013-05-18 22:44:00,58.0,54.5,30.18,East,89,0.0,1.0,88,0.00,,,0.00,Wunderground v.1.15,2013-05-19 02:44:00,
2013-05-18 22:49:00,58.0,54.5,30.18,ESE,109,2.0,2.0,88,0.00,,,0.00,Wunderground v.1.15,2013-05-19 02:49:00,
2013-05-18 22:54:00,58.0,54.5,30.18,SSE,157,0.0,1.0,88,0.00,,,0.00,Wunderground v.1.15,2013-05-19 02:54:00,
2013-05-18 22:59:00,58.0,54.5,30.18,SSW,201,1.0,2.0,88,0.00,,,0.00,Wunderground v.1.15,2013-05-19 02:59:00,
2013-05-18 23:04:00,57.9,54.4,30.18,ESE,110,0.0,3.0,88,0.00,,,0.00,Wunderground v.1.15,2013-05-19 03:04:00,
2013-05-18 23:09:00,57.9,54.4,30.18,South,174,0.0,3.0,88,0.00,,,0.00,Wunderground v.1.15,2013-05-19 03:09:00,
2013-05-18 23:14:00,57.9,54.4,30.18,South,173,0.0,0.0,88,0.00,,,0.00,Wunderground v.1.15,2013-05-19 03:14:00,
2013-05-18 23:20:00,57.9,54.4,30.18,South,172,0.0,0.0,88,0.00,,,0.00,Wunderground v.1.15,2013-05-19 03:20:00,
2013-05-18 23:25:00,57.8,54.6,30.18,South,172,0.0,0.0,89,0.00,,,0.00,Wunderground v.1.15,2013-05-19 03:25:00,
2013-05-18 23:30:00,57.7,54.5,30.18,South,172,0.0,0.0,89,0.00,,,0.00,Wunderground v.1.15,2013-05-19 03:30:00,
2013-05-18 23:35:00,57.7,54.5,30.18,SW,222,0.0,1.0,89,0.00,,,0.00,Wunderground v.1.15,2013-05-19 03:35:00,
2013-05-18 23:40:00,57.7,54.5,30.18,SW,222,0.0,1.0,89,0.00,,,0.00,Wunderground v.1.15,2013-05-19 03:40:00,
2013-05-18 23:45:00,57.8,54.3,30.18,SW,221,0.0,0.0,88,0.00,,,0.00,Wunderground v.1.15,2013-05-19 03:45:00,
2013-05-18 23:50:00,57.8,54.3,30.18,SW,221,0.0,0.0,88,0.00,,,0.00,Wunderground v.1.15,2013-05-19 03:50:00,
2013-05-18 23:55:00,57.8,54.3,30.18,South,186,0.0,2.0,88,0.00,,,0.00,Wunderground v.1.15,2013-05-19 03:55:00,